Flag for Finland Weather past 2 weeks in Lappeenranta, Finland

Now
37 °F

Light rain. Mostly cloudy.


Feels Like: 29 °F
Forecast: 32 / 39 °F
Wind: 13 mph from South

Location: Lappeenranta

Current Time: Mar 31, 2015 at 12:06:26 PM

Latest Report: Mar 31, 2015 at 11:20 AM


Visibility: N/A

Pressure: 29.03 "Hg

Humidity: 93%

Dew point: 36 °F

Location of LappeenrantaLocation

Historic Weather in Lappeenranta — Graph

°F

Lappeenranta temperature yesterday

Maximum temperature yesterday: 34 °F (at 2:20 PM)
Minimum temperature yesterday: 30 °F (at 5:20 AM)
Average temperature yesterday: 32 °F

Past Weeks' High & Low Weather Summary

 TemperatureHumidityPressure
High52 °F (Mar 17, 3:20 PM)100% (Mar 23, 1:20 AM)31.07 "Hg (Mar 23, 1:20 AM)
Low14 °F (Mar 22, 5:20 AM)21% (Mar 16, 3:50 PM)28.97 "Hg (Mar 31, 8:50 AM)
Average33 °F67%30.03 "Hg
* Reported Mar 16 9:20 AM — Mar 31 10:50 AM, Lappeenranta, Weather by CustomWeather, © 2015

Note: Actual official high and low records may vary slightly from our data, if they occured in-between our weather recording intervals... More about our weather records

Advertising

Lappeenranta weather history for previous 24 hours

 ConditionsComfort  
Time TempWeatherWind HumidityBarometerVisibility
10:50 AM
Tue, Mar 31
37 °FLight rain. Broken clouds.14 mph93%29.00 "HgN/A
10:20 AM37 °FLight rain. Partly sunny.14 mph93%29.00 "Hg4 mi
9:50 AM37 °FLight rain. Mostly cloudy.15 mph93%28.97 "Hg4 mi
9:20 AM37 °FLight rain. Broken clouds.15 mph93%28.97 "Hg4 mi
8:50 AM36 °FLight rain. Mostly cloudy.14 mph100%28.97 "Hg5 mi
8:20 AM36 °FLight rain. Partly sunny.13 mph93%29.00 "HgN/A
7:50 AM34 °FRain. Mostly cloudy.13 mph93%29.00 "Hg1 mi
7:20 AM34 °FLight rain. Mostly cloudy.13 mph93%29.03 "Hg3 mi
6:50 AM34 °FSprinkles. Mostly cloudy.13 mph93%29.03 "Hg2 mi
6:20 AM34 °FSprinkles. Mostly cloudy.12 mph93%29.06 "Hg3 mi
5:50 AM34 °FFog.8 mph93%29.09 "Hg2 mi
5:20 AM32 °FLow clouds.9 mph100%29.09 "Hg5 mi
4:50 AM32 °FLow clouds.9 mph100%29.12 "Hg5 mi
4:20 AM32 °FLight rain. Mostly cloudy.9 mph100%29.12 "Hg3 mi
3:50 AM32 °FLight snow. Ice fog.9 mph100%29.12 "Hg3 mi
3:20 AM32 °FIce fog.10 mph100%29.15 "Hg2 mi
2:50 AM32 °FLow clouds.10 mph100%29.15 "HgN/A
2:20 AM32 °FLow clouds.9 mph100%29.15 "HgN/A
1:50 AM32 °FPassing clouds.9 mph100%29.15 "HgN/A
1:20 AM32 °FLight snow. Passing clouds.9 mph93%29.15 "Hg1 mi
12:50 AM32 °FSnow. Passing clouds.8 mph93%29.18 "Hg1 mi
11:50 PM
Mon, Mar 30
32 °FSnow. Mostly cloudy.12 mph93%29.18 "Hg1 mi
11:20 PM32 °FSnow. Mostly cloudy.10 mph93%29.18 "Hg1 mi
10:50 PM32 °FSnow. Partly cloudy.10 mph93%29.21 "Hg1 mi
10:20 PM32 °FLight snow. Partly cloudy.10 mph100%29.21 "Hg1 mi
9:50 PM32 °FLight snow. Partly cloudy.9 mph100%29.21 "Hg1 mi
9:20 PM32 °FSnow. Passing clouds.8 mph100%29.24 "Hg1 mi
8:50 PM32 °FLight rain. Mostly cloudy.9 mph93%29.24 "Hg1 mi
8:20 PM32 °FLight rain. Mostly cloudy.9 mph93%29.24 "Hg2 mi
7:50 PM32 °FLight snow. Partly sunny.10 mph93%29.24 "Hg2 mi
7:20 PM32 °FLight snow. Broken clouds.9 mph93%29.24 "Hg1 mi
6:50 PM32 °FLight snow. Broken clouds.10 mph93%29.24 "Hg1 mi
6:20 PM32 °FLight rain. Partly sunny.9 mph93%29.27 "Hg1 mi
5:50 PM32 °FLight snow. Partly sunny.8 mph93%29.27 "Hg2 mi
5:20 PM32 °FLight rain. Broken clouds.9 mph93%29.27 "Hg1 mi
4:50 PM32 °FLight rain. Mostly cloudy.8 mph93%29.30 "Hg2 mi
4:20 PM32 °FLight rain. Partly sunny.8 mph93%29.30 "HgN/A
3:50 PM32 °FPartly sunny.8 mph87%29.30 "HgN/A
3:20 PM34 °FSnow flurries. Partly sunny.9 mph81%29.30 "HgN/A
2:50 PM34 °FSnow flurries. Partly sunny.8 mph81%29.30 "HgN/A
2:20 PM34 °FLight rain. Overcast.8 mph81%29.33 "HgN/A
1:50 PM32 °FPartly sunny.9 mph87%29.33 "HgN/A
1:20 PM32 °FBroken clouds.8 mph87%29.33 "HgN/A
12:50 PM32 °FLight snow. Partly sunny.8 mph87%29.33 "HgN/A
12:20 PM30 °FPartly sunny.8 mph93%29.36 "HgN/A
Weather by CustomWeather, © 2015

See weather overviewHow to use our weather pages